15min,AgWx,evansfrm,411,25AUG2017:00:00:00,59.3,12.95,57.4,57.4,57.7,58.6,56.8,65,67,64,1.065,46.2,47.1,45.6,0,1.0,56,64,2.5,-0.00022,-0.00031,81.8,79.9,11,0,0,55.1,3.26,.,0.00
15min,AgWx,evansfrm,411,25AUG2017:00:15:00,58.8,12.93,57.7,58.0,57.7,58.1,57.4,66,66,65,1.083,46.4,46.9,45.9,0,0.3,84,3.6,2.7,-0.00032,-0.00049,81.2,79.9,11,0,0,54.1,3.26,.,0.00
15min,AgWx,evansfrm,411,25AUG2017:00:30:00,58.2,12.94,56.9,57.0,57.6,58.0,57.0,68,69,66,1.086,47.1,47.5,46.5,3.113,0.2,80,2.7,3.1,-0.00033,-0.00052,80.9,79.7,11,0,0,53.5,3.26,.,0.00
15min,AgWx,evansfrm,411,25AUG2017:00:45:00,57.9,12.92,57.8,57.8,57.9,59.1,57.1,66,68,61,1.032,46.5,47.2,45.0,1.513,1.5,57,44,3.3,-0.00017,-0.00022,80.7,79.5,11,0,0,55.1,3.26,.,0.00
15min,AgWx,evansfrm,411,25AUG2017:01:00:00,57.5,12.92,56.3,56.4,57.0,57.9,56.4,66,67,63,1.046,45.7,46.4,44.9,0,1.0,169,8.9,3.6,-0.00022,-0.00031,80.3,79.3,12,0,0,54.6,3.27,.,0.00
15min,AgWx,evansfrm,411,25AUG2017:01:15:00,57.0,12.92,54.8,55.0,55.8,56.7,54.5,68,69,67,1.013,45.5,46.5,44.3,1.798,1.1,150,10,3.2,-0.00021,-0.00029,79.8,79.2,11,0,0,53.1,3.27,.,0.00
15min,AgWx,evansfrm,411,25AUG2017:01:30:00,56.4,12.91,55.1,55.5,55.2,55.6,54.6,70,71,69,1.066,45.6,46.3,44.7,0,0.5,178,0.4,2.3,-0.00027,-0.00041,79.5,79.0,11,0,0,52.7,3.27,.,0.00
15min,AgWx,evansfrm,411,25AUG2017:01:45:00,56.1,12.9,55.6,55.6,55.6,55.9,55.4,70,71,70,1.049,46.1,46.4,45.7,2.258,0.9,57,35,2.3,-0.00024,-0.00034,79.2,79.0,11,0,0,52.5,3.27,.,0.00
15min,AgWx,evansfrm,411,25AUG2017:02:00:00,55.8,12.9,56.6,56.7,56.3,57.3,54.5,67,71,65,1.026,45.4,45.9,45.0,0,1.1,93,32,3.0,-0.00020,-0.00028,78.8,78.8,11,0,0,53.9,3.27,.,0.00
15min,AgWx,evansfrm,411,25AUG2017:02:15:00,55.5,12.88,55.4,55.4,56.1,56.7,55.4,68,69,65,1.033,45.5,46.0,45.0,0,0.0,38,0.0,0.7,-0.00034,-0.00055,78.5,78.6,11,0,0,52.4,3.27,.,0.00
15min,AgWx,evansfrm,411,25AUG2017:02:30:00,55.2,12.83,54.9,55.2,55.4,55.9,55.1,71,72,69,1.063,46.0,46.5,45.3,0,0.7,30,17,2.3,-0.00025,-0.00037,78.1,78.3,11,0,0,52.0,3.27,.,0.00
15min,AgWx,evansfrm,411,25AUG2017:02:45:00,54.8,12.87,53.6,53.6,54.1,55.2,53.4,73,74,70,1.030,45.5,46.2,44.9,0.548,2.6,153,21,3.8,-0.00009,-0.00010,77.9,78.3,11,0,0,52.7,3.27,.,0.00
15min,AgWx,evansfrm,411,25AUG2017:03:00:00,54.4,12.86,54.2,54.4,53.5,54.4,52.8,73,74,71,1.021,45.1,45.6,44.5,2.258,1.0,168,28,2.5,-0.00023,-0.00032,77.5,77.9,11,0,0,51.4,3.27,.,0.00
15min,AgWx,evansfrm,411,25AUG2017:03:15:00,54.0,12.86,53.6,53.9,53.8,54.4,53.4,72,74,71,1.046,45.0,45.8,44.5,1.03,1.1,170,22,2.7,-0.00021,-0.00030,77.3,77.9,11,0,0,51.6,3.27,.,0.00
15min,AgWx,evansfrm,411,25AUG2017:03:30:00,53.7,12.85,53.0,53.1,53.8,54.5,53.0,71,74,69,0.989,44.7,45.8,43.8,0,1.0,115,15,2.5,-0.00022,-0.00030,77.1,77.9,11,0,0,52.1,3.28,.,0.00
15min,AgWx,evansfrm,411,25AUG2017:03:45:00,53.6,12.83,54.3,54.4,54.3,55.0,53.0,71,73,69,1.044,45.1,45.9,44.2,1.381,2.0,31,30,3.7,-0.00013,-0.00017,76.6,77.4,11,0,0,51.8,3.27,.,0.00
15min,AgWx,evansfrm,411,25AUG2017:04:00:00,53.4,12.83,53.2,53.3,53.8,54.3,53.3,72,73,72,0.997,45.1,45.6,44.4,0.833,0.4,78,40,2.0,-0.00028,-0.00043,76.5,77.4,11,0,0,51.3,3.27,.,0.00
15min,AgWx,evansfrm,411,25AUG2017:04:15:00,53.0,12.81,52.7,53.0,53.1,53.4,52.7,72,72,71,0.992,44.3,44.6,43.9,0,0.7,162,11,1.8,-0.00025,-0.00036,76.1,77.2,11,0,0,51.3,3.27,.,0.00
15min,AgWx,evansfrm,411,25AUG2017:04:30:00,52.6,12.81,52.0,52.1,52.4,53.0,51.9,74,76,72,1.010,44.3,45.0,43.9,1.425,1.3,145,4.0,2.4,-0.00020,-0.00027,76.0,77.0,11,0,0,50.3,3.27,.,0.00
15min,AgWx,evansfrm,411,25AUG2017:04:45:00,52.2,12.81,52.1,52.4,51.7,52.4,51.3,77,78,76,1.028,44.8,45.5,44.0,2.981,2.2,144,28,3.1,-0.00014,-0.00017,75.6,77.0,11,0,0,50.9,3.28,.,0.00
15min,AgWx,evansfrm,411,25AUG2017:05:00:00,52.2,12.8,54.1,53.6,54.1,55.7,52.1,76,81,72,1.030,46.5,47.8,45.0,0.175,0.8,44,19,2.9,-0.00024,-0.00034,75.4,76.6,11,0,0,51.7,3.28,.,0.00
15min,AgWx,evansfrm,411,25AUG2017:05:15:00,52.0,12.79,52.6,52.4,53.1,53.6,52.4,76,78,74,1.043,45.9,46.5,45.3,3.42,1.8,209,28,3.6,-0.00016,-0.00021,75.0,76.6,11,0,0,51.3,3.28,.,0.00
15min,AgWx,evansfrm,411,25AUG2017:05:30:00,51.9,12.79,52.7,52.4,52.2,52.8,51.4,81,83,78,1.066,46.4,47.2,45.3,1.951,3.0,149,33,5.0,-0.00011,-0.00012,74.8,76.3,11,0,0,51.1,3.27,.,0.00
15min,AgWx,evansfrm,411,25AUG2017:05:45:00,51.8,12.78,54.7,55.0,53.5,55.0,52.5,77,80,72,1.060,46.4,46.8,45.8,1.535,1.5,149,45,2.5,-0.00018,-0.00024,74.7,76.1,11,2,0,51.6,3.27,.,0.00
15min,AgWx,evansfrm,411,25AUG2017:06:00:00,52.1,12.78,54.8,54.8,54.9,55.2,54.6,71,72,70,1.048,45.7,46.1,45.3,0,1.3,47,24,3.4,-0.00029,-0.00024,74.4,75.9,11,10,0,52.5,3.28,.,0.00
15min,AgWx,evansfrm,411,25AUG2017:06:15:00,52.2,12.8,53.6,53.6,54.3,54.9,53.6,73,74,71,1.043,45.8,46.1,45.5,1.754,0.3,281,20,2.1,-0.00034,-0.00035,74.2,75.9,11,25,0,52.7,3.27,.,0.00
15min,AgWx,evansfrm,411,25AUG2017:06:30:00,52.5,12.82,53.9,53.8,53.3,53.8,53.0,77,79,74,1.091,46.3,47.3,45.4,3.025,3.0,179,24,4.4,0.00007,0.00019,73.9,75.7,11,44,0,53.8,3.27,.,0.00
15min,AgWx,evansfrm,411,25AUG2017:06:45:00,53.0,12.85,55.6,55.7,54.6,55.7,53.8,76,77,73,1.101,47.2,47.4,46.8,2.411,3.4,162,27,4.8,0.00030,0.00046,73.8,75.4,11,61,0,55.9,3.26,.,0.00
15min,AgWx,evansfrm,411,25AUG2017:07:00:00,54.6,12.93,58.0,57.8,56.6,57.9,55.6,70,73,66,1.078,47.0,47.4,46.5,1.315,2.3,203,18,3.7,0.00047,0.00063,73.4,75.4,11,136,0,60.8,3.26,.,0.00
15min,AgWx,evansfrm,411,25AUG2017:07:15:00,57.5,13.05,60.6,59.7,58.8,59.9,57.8,62,66,59,1.056,45.7,46.7,45.1,0.351,1.1,144,28,2.3,0.00068,0.00081,73.3,75.4,11,172,0,67.9,3.26,.,0.00
15min,AgWx,evansfrm,411,25AUG2017:07:30:00,59.1,13.12,58.3,57.9,58.5,59.9,57.8,65,68,61,1.094,46.9,47.8,46.1,2.806,2.5,340,19,4.6,0.00080,0.00101,73.1,75.0,11,125,0,65.9,3.28,.,0.00
15min,AgWx,evansfrm,411,25AUG2017:07:45:00,59.8,13.43,61.1,59.9,58.7,60.1,57.9,66,68,65,1.157,47.6,49.3,46.9,1.798,1.6,286,54,3.5,0.00099,0.00116,73.0,75.0,11,183,0,67.2,3.26,.,0.00
15min,AgWx,evansfrm,411,25AUG2017:08:00:00,63.5,13.93,62.5,62.4,61.0,62.4,59.9,64,67,61,1.183,48.8,49.7,48.0,3.442,3.1,213,43,4.9,0.00188,0.00222,73.0,74.8,11,354,0,77.6,3.27,.,0.00
15min,AgWx,evansfrm,411,25AUG2017:08:15:00,66.4,14.03,64.4,64.2,62.9,64.2,62.0,57,62,52,1.067,47.5,49.3,46.3,2.85,3.1,185,27,5.6,0.00205,0.00245,73.0,74.7,11,355,0,78.8,3.27,.,0.00
15min,AgWx,evansfrm,411,25AUG2017:08:30:00,68.7,13.92,64.2,63.7,63.9,64.4,63.5,53,56,51,1.073,46.4,48.0,45.7,1.6,2.6,224,25,4.2,0.00204,0.00243,73.2,74.7,11,325,0,80.3,3.28,.,0.00
15min,AgWx,evansfrm,411,25AUG2017:08:45:00,70.8,14.34,66.9,65.6,64.4,66.0,63.4,54,57,51,1.106,47.3,49.6,45.7,1.118,1.7,307,39,4.3,0.00257,0.00291,73.1,74.5,11,445,0,89.8,3.28,.,0.00
15min,AgWx,evansfrm,411,25AUG2017:09:00:00,72.2,13.84,66.1,66.1,65.5,66.2,64.8,50,54,47,1.049,46.6,48.4,45.0,4.713,2.4,17,43,6.4,0.00197,0.00235,73.2,74.5,11,276,0,86.0,3.30,.,0.00
15min,AgWx,evansfrm,411,25AUG2017:09:15:00,71.3,13.76,66.1,65.5,66.0,66.3,65.5,50,57,47,1.199,46.7,49.8,45.3,0.986,1.6,61,84,4.9,0.00124,0.00150,73.5,74.3,11,144,0,73.1,3.30,.,0.00
15min,AgWx,evansfrm,411,25AUG2017:09:30:00,72.6,14.25,69.2,68.8,66.9,69.5,65.2,50,56,44,1.137,47.8,49.5,46.3,3.069,3.5,226,19,4.8,0.00342,0.00401,73.7,74.3,11,537,0,90.6,3.27,.,0.00
15min,AgWx,evansfrm,411,25AUG2017:09:45:00,73.9,13.96,68.7,68.4,68.4,69.5,67.9,45,47,43,1.072,46.0,48.3,44.9,3.771,4.1,172,26,6.6,0.00243,0.00307,73.9,74.3,11,291,0,83.0,3.30,.,0.00
15min,AgWx,evansfrm,411,25AUG2017:10:00:00,73.2,14.17,68.3,67.7,67.9,68.7,67.2,48,53,45,1.103,47.8,50.1,46.0,2.696,3.9,251,25,6.2,0.00203,0.00259,74.2,74.1,11,228,0,77.3,3.29,.,0.00
15min,AgWx,evansfrm,411,25AUG2017:10:15:00,73.8,14.28,68.8,68.3,68.0,68.7,67.3,47,52,43,1.070,47.4,49.7,45.2,3.946,3.0,343,30,6.0,0.00321,0.00375,74.5,74.1,11,469,0,92.9,3.26,.,0.00
15min,AgWx,evansfrm,411,25AUG2017:10:30:00,76.7,14.26,71.4,71.0,69.6,71.0,68.2,39,45,33,0.901,43.8,46.9,40.6,1.688,3.4,356,29,6.6,0.00502,0.00580,74.8,73.9,11,767,0,114.5,3.27,.,0.00
15min,AgWx,evansfrm,411,25AUG2017:10:45:00,79.2,14.21,73.3,72.6,71.7,72.7,71.0,37,42,34,0.958,44.1,47.4,42.0,1.118,2.3,6.8,41,4.9,0.00478,0.00543,75.1,73.9,11,711,0,116.6,3.28,.,0.00
15min,AgWx,evansfrm,411,25AUG2017:11:00:00,80.9,14.18,75.1,73.7,72.4,73.8,71.3,34,41,31,0.924,42.7,46.5,40.5,0,1.5,29,55,4.6,0.00419,0.00470,75.5,74.1,11,613,0,111.3,3.28,.,0.00
15min,AgWx,evansfrm,411,25AUG2017:11:15:00,83.3,14.16,76.8,75.1,74.5,75.6,73.4,32,38,30,0.982,42.9,48.0,40.4,1.315,1.6,214,81,3.4,0.00497,0.00556,76.0,73.9,11,732,0,118.9,3.28,.,0.00
15min,AgWx,evansfrm,411,25AUG2017:11:30:00,85.1,14.12,75.6,74.9,75.6,76.4,74.8,32,36,30,1.079,44.1,46.6,42.4,0.811,1.6,84,84,3.4,0.00407,0.00460,76.6,73.9,11,563,0,112.8,3.29,.,0.00
15min,AgWx,evansfrm,411,25AUG2017:11:45:00,84.5,14.12,74.6,74.1,74.3,75.6,73.5,40,44,34,1.160,48.1,50.9,44.9,3.42,3.7,257,15,5.3,0.00343,0.00416,77.2,74.1,11,421,0,95.9,3.29,.,0.00
15min,AgWx,evansfrm,411,25AUG2017:12:00:00,83.6,14.13,76.7,75.8,75.1,76.1,74.3,36,43,34,1.132,46.6,51.2,44.6,1.118,2.3,260,44,3.9,0.00502,0.00570,77.7,74.1,11,714,0,114.3,3.27,.,0.00
15min,AgWx,evansfrm,411,25AUG2017:12:15:00,83.3,14.09,78.3,77.4,77.2,78.5,75.8,34,43,31,1.082,46.8,53.2,45.0,1.841,1.8,87,66,5.5,0.00494,0.00556,78.3,74.3,11,685,0,124.8,3.29,.,0.00
15min,AgWx,evansfrm,411,25AUG2017:12:30:00,82.7,14.13,78.9,78.5,77.3,78.5,76.5,39,47,32,1.160,50.2,56.3,45.8,3.047,1.5,314,54,3.9,0.00300,0.00343,78.8,74.3,11,388,0,100.1,3.28,.,0.00
15min,AgWx,evansfrm,411,25AUG2017:12:45:00,82.6,14.13,81.5,81.3,80.1,81.3,78.7,34,38,30,1.349,49.1,52.6,46.1,2.653,2.2,356,42,4.5,0.00612,0.00689,79.3,74.5,11,854,0,133.2,3.27,.,0.00
15min,AgWx,evansfrm,411,25AUG2017:13:00:00,82.9,14.1,82.2,81.9,80.6,81.9,79.8,34,38,31,1.289,49.3,53.1,47.2,5.765,3.5,304,29,6.4,0.00569,0.00663,80.0,74.5,11,755,0,122.7,3.28,.,0.00
15min,AgWx,evansfrm,411,25AUG2017:13:15:00,83.5,14.07,83.0,82.1,81.8,82.9,81.0,33,38,31,1.203,50.0,53.8,47.9,3.814,4.0,275,17,6.9,0.00628,0.00734,80.5,74.8,11,832,0,122.8,3.28,.,0.00
15min,AgWx,evansfrm,411,25AUG2017:13:30:00,84.5,14.04,84.0,83.3,82.5,83.5,81.7,33,41,29,1.246,50.2,56.2,47.3,2.411,3.3,282,27,5.1,0.00618,0.00715,81.2,74.7,11,825,0,126.7,3.28,.,0.00
15min,AgWx,evansfrm,411,25AUG2017:13:45:00,85.9,13.99,84.8,84.4,83.6,84.7,82.9,31,36,28,1.198,49.5,53.0,47.4,2.806,3.2,262,35,4.9,0.00613,0.00709,81.9,75.0,11,814,0,127.6,3.28,.,0.00
15min,AgWx,evansfrm,411,25AUG2017:14:00:00,87.5,13.95,86.0,85.1,84.7,85.2,84.1,29,34,24,1.002,48.7,53.6,44.1,2.521,3.1,265,29,4.7,0.00609,0.00706,82.7,75.2,11,803,0,127.5,3.28,.,0.00
15min,AgWx,evansfrm,411,25AUG2017:14:15:00,89.5,13.92,87.0,85.4,86.0,87.0,85.1,26,31,24,1.220,47.1,51.8,44.2,1.863,2.6,265,28,4.5,0.00591,0.00681,83.3,75.4,11,784,0,130.9,3.28,.,0.00
15min,AgWx,evansfrm,411,25AUG2017:14:30:00,91.6,13.89,87.6,87.3,86.6,87.8,85.4,26,34,22,1.254,47.3,54.1,43.5,2.17,2.0,279,46,5.1,0.00563,0.00640,84.1,75.7,11,757,0,133.0,3.28,.,0.00
15min,AgWx,evansfrm,411,25AUG2017:14:45:00,93.8,13.85,88.5,87.6,86.8,87.6,86.5,26,32,24,1.053,47.7,54.1,45.1,3.793,2.7,289,23,4.5,0.00557,0.00647,84.8,75.9,11,734,0,129.8,3.28,.,0.00
15min,AgWx,evansfrm,411,25AUG2017:15:00:00,95.7,13.82,89.8,89.1,87.6,89.2,86.8,25,29,23,1.053,47.2,51.6,45.4,1.271,2.4,276,38,4.3,0.00546,0.00631,85.6,76.1,11,729,0,129.0,3.27,.,0.00
15min,AgWx,evansfrm,411,25AUG2017:15:15:00,97.4,13.8,90.8,88.9,88.5,89.2,87.5,25,30,22,1.117,47.8,53.1,45.6,3.529,2.7,265,26,5.2,0.00530,0.00620,86.0,76.3,11,695,0,126.5,3.27,.,0.00
15min,AgWx,evansfrm,411,25AUG2017:15:30:00,98.6,13.79,90.6,89.3,88.5,89.3,87.7,25,31,22,1.034,48.1,54.4,45.0,0.636,2.0,281,50,3.8,0.00476,0.00549,86.8,77.0,11,642,0,125.8,3.27,.,0.00
15min,AgWx,evansfrm,411,25AUG2017:15:45:00,99.6,13.77,90.5,89.0,89.8,91.2,88.9,22,25,20,1.010,45.9,49.4,44.2,2.872,2.6,225,56,6.0,0.00466,0.00551,87.3,77.0,11,616,0,122.2,3.27,.,0.00
15min,AgWx,evansfrm,411,25AUG2017:16:00:00,100.1,13.76,90.1,89.4,89.7,90.4,88.9,22,29,20,1.130,46.3,52.7,44.0,3.683,2.5,240,27,4.6,0.00415,0.00495,88.0,77.2,11,542,0,115.7,3.26,.,0.00
15min,AgWx,evansfrm,411,25AUG2017:16:15:00,99.6,13.78,90.2,89.3,88.7,89.6,88.2,23,31,20,1.017,46.6,53.7,42.6,2.674,2.8,296,24,4.4,0.00417,0.00502,88.3,77.5,11,550,0,113.3,3.27,.,0.00
15min,AgWx,evansfrm,411,25AUG2017:16:30:00,99.2,13.77,89.4,88.4,88.5,89.1,88.0,23,29,20,1.013,45.8,52.1,42.2,1.929,2.1,324,21,4.4,0.00303,0.00369,88.7,77.9,11,392,0,108.7,3.27,.,0.00
15min,AgWx,evansfrm,411,25AUG2017:16:45:00,97.7,13.79,87.9,87.0,87.5,88.5,86.8,25,32,21,1.102,47.4,53.5,43.2,2.192,2.0,292,18,3.0,0.00207,0.00261,89.1,78.1,11,234,0,97.0,3.27,.,0.00
15min,AgWx,evansfrm,411,25AUG2017:17:00:00,96.0,13.73,88.3,87.0,87.1,87.7,86.6,25,33,21,0.945,46.7,55.2,42.6,2.148,1.8,300,12,2.6,0.00192,0.00242,89.5,78.4,11,231,0,95.2,3.26,.,0.00
15min,AgWx,evansfrm,411,25AUG2017:17:15:00,93.8,13.51,85.9,85.1,86.4,87.1,85.1,24,32,21,1.039,45.5,53.4,42.0,0.855,1.3,296,17,2.0,0.00112,0.00148,89.6,78.6,11,94,0,86.8,3.26,.,0.00
15min,AgWx,evansfrm,411,25AUG2017:17:30:00,92.5,13.89,86.5,87.0,86.0,87.4,84.7,29,37,25,1.253,49.8,56.3,46.7,2.718,1.4,336,22,4.0,0.00164,0.00202,89.7,79.0,11,261,0,86.2,3.25,.,0.00
15min,AgWx,evansfrm,411,25AUG2017:17:45:00,92.1,13.69,86.3,86.6,87.0,87.2,86.6,28,31,25,1.226,50.0,53.3,47.2,3.069,3.2,11,15,5.3,0.00186,0.00259,89.7,79.3,11,244,0,86.1,3.25,.,0.00
15min,AgWx,evansfrm,411,25AUG2017:18:00:00,91.5,13.53,85.6,86.1,86.5,86.8,86.0,28,30,25,1.256,49.2,51.5,46.2,3.157,3.5,7.0,14,5.2,0.00149,0.00225,89.6,79.3,11,188,0,84.7,3.25,.,0.00
15min,AgWx,evansfrm,411,25AUG2017:18:15:00,90.7,13.37,84.9,85.8,85.8,86.0,85.5,29,32,27,1.262,49.5,52.7,47.9,2.28,2.3,3.3,20,3.9,0.00080,0.00129,89.7,79.7,11,138,0,83.4,3.25,.,0.00
15min,AgWx,evansfrm,411,25AUG2017:18:30:00,89.7,13.25,84.1,83.9,85.5,86.3,83.9,29,32,26,1.250,49.2,51.8,47.2,1.315,1.2,311,35,3.2,0.00025,0.00050,89.5,79.7,11,104,0,81.9,3.26,.,0.00
15min,AgWx,evansfrm,411,25AUG2017:18:45:00,88.1,13.16,81.8,82.8,83.3,84.0,82.5,33,36,31,1.231,51.0,54.2,49.5,0,0.6,274,8.7,1.7,-0.00024,-0.00014,89.3,79.9,11,58,0,79.3,3.26,.,0.00
15min,AgWx,evansfrm,411,25AUG2017:19:00:00,85.9,13.1,77.5,76.9,80.2,82.9,76.9,35,43,32,1.308,50.4,53.5,48.0,1.841,1.1,68,70,3.0,0.00014,0.00033,89.3,79.9,11,11,0,75.5,3.26,.,0.00
15min,AgWx,evansfrm,411,25AUG2017:19:15:00,83.6,13.08,75.1,74.8,75.7,77.1,74.5,44,48,40,1.391,52.1,53.8,49.7,3.924,4.5,259,31,8.6,0.00052,0.00076,89.0,80.2,11,4,0,72.8,3.25,.,0.00
15min,AgWx,evansfrm,411,25AUG2017:19:30:00,81.3,13.07,72.8,72.5,75.2,76.1,72.5,44,48,41,1.301,51.9,53.6,50.5,4.954,2.1,306,61,5.5,0.00020,0.00033,88.6,80.2,11,1,0,70.8,3.25,.,0.00
15min,AgWx,evansfrm,411,25AUG2017:19:45:00,79.1,13.06,72.5,72.4,72.5,73.8,70.8,49,53,47,1.350,52.5,53.8,51.5,2.192,4.3,219,46,7.0,0.00041,0.00061,88.3,80.6,12,0,0,69.8,3.25,.,0.00
15min,AgWx,evansfrm,411,25AUG2017:20:00:00,77.0,13.05,68.9,68.9,70.2,72.5,68.9,53,56,48,1.328,52.5,52.9,51.3,2.828,2.5,162,27,3.7,0.00017,0.00028,87.9,80.6,11,0,0,67.6,3.25,.,0.00
15min,AgWx,evansfrm,411,25AUG2017:20:15:00,75.2,13.04,69.8,70.0,69.6,70.6,68.7,53,56,51,1.332,51.9,52.5,51.3,1.469,3.6,141,30,5.1,0.00028,0.00043,87.4,80.6,11,0,0,67.3,3.25,.,0.00
15min,AgWx,evansfrm,411,25AUG2017:20:30:00,73.6,13.04,67.9,68.0,68.6,69.9,67.3,54,56,52,1.250,51.3,52.1,50.5,3.595,2.5,140,34,4.2,0.00016,0.00027,87.1,80.6,11,0,0,65.9,3.25,.,0.00
15min,AgWx,evansfrm,411,25AUG2017:20:45:00,72.0,13.03,66.2,66.2,67.3,68.4,66.2,56,58,52,1.253,51.0,52.2,49.5,2.653,2.8,153,14,4.1,0.00018,0.00029,86.5,80.6,11,0,0,65.4,3.25,.,0.00
15min,AgWx,evansfrm,411,25AUG2017:21:00:00,70.6,13.02,65.9,66.1,65.9,66.3,65.5,59,60,57,1.281,51.0,51.6,50.3,3.266,2.9,155,8.2,4.1,0.00017,0.00026,86.2,80.6,11,0,0,64.0,3.25,.,0.00
15min,AgWx,evansfrm,411,25AUG2017:21:15:00,69.3,13.01,64.8,65.1,65.4,66.1,64.7,57,61,54,1.178,49.9,51.2,48.4,0,2.5,153,14,4.3,0.00014,0.00023,85.6,80.6,11,0,0,63.5,3.25,.,0.00
15min,AgWx,evansfrm,411,25AUG2017:21:30:00,68.3,12.97,68.3,69.0,66.8,69.1,64.6,48,56,40,0.978,46.6,48.9,43.9,3.902,2.2,122,10,4.5,0.00015,0.00026,85.3,80.4,11,0,0,64.2,3.24,.,0.00
15min,AgWx,evansfrm,411,25AUG2017:21:45:00,67.7,13,66.6,66.6,68.0,69.5,66.3,42,46,39,0.986,44.2,45.4,43.1,3.42,3.4,151,16,4.8,0.00034,0.00052,84.8,80.4,11,0,0,66.1,3.25,.,0.00
15min,AgWx,evansfrm,411,25AUG2017:22:00:00,67.3,13,68.0,67.6,68.7,69.3,66.8,41,44,39,0.985,43.8,44.4,43.4,1.973,3.8,149,11,5.3,0.00041,0.00060,84.4,80.4,11,0,0,66.3,3.24,.,0.00
15min,AgWx,evansfrm,411,25AUG2017:22:15:00,66.7,12.99,65.4,66.0,66.1,67.6,65.4,46,47,43,1.002,44.4,44.9,43.9,0.965,0.9,162,31,2.7,-0.00002,-0.00001,84.0,80.4,11,0,0,62.3,3.26,.,0.00
15min,AgWx,evansfrm,411,25AUG2017:22:30:00,65.9,12.99,62.9,62.8,64.4,66.0,62.8,50,54,46,1.050,45.4,46.2,44.5,0.855,0.5,75,15,2.3,-0.00009,-0.00013,83.5,80.1,11,0,0,60.4,3.26,.,0.00
15min,AgWx,evansfrm,411,25AUG2017:22:45:00,64.9,12.98,62.8,63.1,62.5,63.8,62.0,53,55,49,1.010,45.1,46.1,44.1,2.543,0.2,133,30,2.5,-0.00015,-0.00022,83.1,80.2,11,0,0,58.9,3.26,.,0.00
15min,AgWx,evansfrm,411,25AUG2017:23:00:00,64.1,12.98,61.7,61.5,62.0,63.2,61.0,55,58,51,1.009,45.8,46.6,44.8,1.381,1.0,53,14,2.7,-0.00003,-0.00003,82.6,80.1,11,0,0,58.5,3.26,.,0.00
15min,AgWx,evansfrm,411,25AUG2017:23:15:00,63.3,12.97,59.9,60.1,60.8,62.2,59.4,58,61,54,1.014,45.7,46.6,44.8,1.118,0.9,78,60,3.0,-0.00004,-0.00005,82.3,79.9,11,0,0,57.9,3.26,.,0.00
15min,AgWx,evansfrm,411,25AUG2017:23:30:00,62.3,12.96,58.1,57.8,59.3,60.3,57.8,60,63,57,1.022,45.2,46.0,44.3,0.241,1.3,149,35,3.3,-0.00000,0.00002,81.9,79.7,11,0,0,57.1,3.26,.,0.00
15min,AgWx,evansfrm,411,25AUG2017:23:45:00,61.5,12.96,58.9,58.8,58.8,60.1,57.7,61,63,59,1.019,45.3,46.0,44.7,0,1.2,81,38,3.1,-0.00002,-0.00001,81.6,79.5,11,0,0,56.7,3.26,.,0.00
15min,AgWx,drainfrm,410,25AUG2017:00:00:00,60.8,12.78,59.9,60.5,61.3,61.7,60.5,65,69,60,1.184,49.5,50.6,47.7,3.99,3.6,194,7.7,4.9,0.00003,0.00007,70.1,69.1,14,0,0,61.5,3.42,.,0.00
15min,AgWx,drainfrm,410,25AUG2017:00:15:00,60.4,12.78,57.1,57.6,59.5,60.7,57.6,68,73,65,1.184,48.9,50.0,48.3,2.894,4.6,222,9.0,6.6,0.00006,0.00012,70.0,68.9,14,0,6,60.3,3.42,.,0.00
15min,AgWx,drainfrm,410,25AUG2017:00:30:00,59.7,12.78,57.1,57.9,57.7,58.1,57.2,75,79,72,1.263,49.8,51.5,48.8,2.916,2.0,181,62,3.7,-0.00014,-0.00018,69.9,69.1,14,0,18,58.3,3.42,.,0.00
15min,AgWx,drainfrm,410,25AUG2017:00:45:00,58.8,12.78,54.8,55.2,56.0,57.9,55.0,80,83,75,1.215,49.7,50.6,49.2,3.639,2.8,74,9.1,3.9,-0.00011,-0.00013,69.6,69.4,14,0,78,56.4,3.42,.,0.00
15min,AgWx,drainfrm,410,25AUG2017:01:00:00,58.0,12.77,55.6,56.0,56.0,56.6,55.2,81,83,79,1.250,50.3,51.1,49.6,2.17,2.9,89,16,3.9,-0.00011,-0.00013,69.6,69.4,14,0,100,56.2,3.42,.,0.00
15min,AgWx,drainfrm,410,25AUG2017:01:15:00,57.1,12.77,54.6,55.3,55.5,56.1,55.0,80,82,79,1.189,49.4,50.4,48.7,1.973,1.1,301,70,2.5,-0.00022,-0.00032,69.4,69.3,14,0,100,56.3,3.42,.,0.00
15min,AgWx,drainfrm,410,25AUG2017:01:30:00,56.2,12.76,54.4,55.3,55.3,56.4,54.5,78,80,75,1.163,48.6,49.7,47.1,1.907,1.8,265,16,2.2,-0.00016,-0.00021,69.3,69.1,14,0,100,56.2,3.42,.,0.00
15min,AgWx,drainfrm,410,25AUG2017:01:45:00,55.4,12.75,53.1,54.0,54.5,55.8,53.7,77,80,74,1.095,47.5,48.5,46.4,3.464,2.5,300,10,3.5,-0.00011,-0.00014,69.2,69.1,14,0,100,57.0,3.42,.,0.00
15min,AgWx,drainfrm,410,25AUG2017:02:00:00,54.7,12.74,54.5,55.0,54.3,55.5,52.6,78,84,75,1.118,47.7,49.0,45.4,3.529,3.2,268,32,5.2,-0.00008,-0.00009,69.0,68.9,14,0,100,55.9,3.42,.,0.00
15min,AgWx,drainfrm,410,25AUG2017:02:15:00,54.4,12.74,53.4,54.0,54.2,55.2,53.5,79,83,75,1.150,47.7,49.0,47.0,2.521,2.4,340,18,3.6,-0.00012,-0.00015,68.9,68.9,14,0,100,55.6,3.42,.,0.00
15min,AgWx,drainfrm,410,25AUG2017:02:30:00,54.0,12.73,52.1,52.6,53.5,54.1,52.6,86,88,81,1.188,49.3,50.1,48.4,4.187,2.3,52,28,4.5,-0.00016,-0.00020,68.8,69.1,14,0,100,54.5,3.42,.,0.00
15min,AgWx,drainfrm,410,25AUG2017:02:45:00,53.7,12.73,52.9,53.1,52.3,53.1,51.7,89,89,87,1.197,49.0,49.4,48.4,2.631,3.6,67,11,4.6,-0.00012,-0.00014,68.6,69.1,14,0,100,53.4,3.42,.,0.00
15min,AgWx,drainfrm,410,25AUG2017:03:00:00,53.4,12.72,52.8,53.6,53.5,53.8,53.2,86,87,82,1.154,49.3,50.0,48.0,2.521,2.0,64,49,3.3,-0.00017,-0.00023,68.6,68.9,14,0,100,54.4,3.42,.,0.00
15min,AgWx,drainfrm,410,25AUG2017:03:15:00,52.9,12.71,53.0,53.7,53.6,54.1,53.0,83,85,80,1.191,48.4,49.4,47.7,2.653,2.0,345,9.1,3.0,-0.00016,-0.00021,68.4,68.9,14,0,100,55.4,3.42,.,0.00
15min,AgWx,drainfrm,410,25AUG2017:03:30:00,52.5,12.7,51.4,51.7,52.6,54.0,51.3,85,89,83,1.168,48.2,49.4,46.8,1.052,1.8,339,47,3.5,-0.00018,-0.00024,68.2,68.7,14,0,100,54.6,3.42,.,0.00
15min,AgWx,drainfrm,410,25AUG2017:03:45:00,52.1,12.69,53.2,53.7,52.1,54.6,51.0,83,89,73,1.125,47.2,48.9,45.9,2.039,2.0,280,70,3.8,-0.00017,-0.00022,68.1,68.9,14,0,100,53.6,3.42,.,0.00
15min,AgWx,drainfrm,410,25AUG2017:04:00:00,51.8,12.69,53.3,53.9,53.7,54.7,53.1,79,82,74,1.084,47.2,48.1,46.2,1.25,1.3,242,56,2.4,-0.00020,-0.00028,68.1,68.9,14,0,100,54.3,3.42,.,0.00
15min,AgWx,drainfrm,410,25AUG2017:04:15:00,51.7,12.68,51.6,51.9,53.4,54.5,51.8,81,89,77,1.167,47.6,48.7,46.8,2.696,2.9,4.6,27,3.7,-0.00011,-0.00012,67.9,68.7,14,0,100,54.6,3.41,.,0.00
15min,AgWx,drainfrm,410,25AUG2017:04:30:00,51.5,12.67,50.5,50.9,51.3,51.8,50.9,89,90,88,1.128,48.1,48.6,47.7,2.389,2.6,8.6,8.6,3.3,-0.00016,-0.00020,67.7,68.5,14,0,100,52.8,3.42,.,0.00
15min,AgWx,drainfrm,410,25AUG2017:04:45:00,51.1,12.66,50.6,51.0,50.9,51.3,50.5,90,92,89,1.168,48.0,48.8,47.4,2.061,1.5,38,42,2.3,-0.00020,-0.00028,67.6,68.7,14,0,100,52.3,3.41,.,0.00
15min,AgWx,drainfrm,410,25AUG2017:05:00:00,50.9,12.66,49.9,50.2,50.8,51.1,50.2,91,92,90,1.113,48.2,48.8,47.4,3.661,2.9,56,6.2,3.9,-0.00015,-0.00019,67.6,68.5,14,0,100,51.9,3.41,.,0.00
15min,AgWx,drainfrm,410,25AUG2017:05:15:00,50.6,12.65,48.6,49.2,50.1,50.5,49.2,88,90,87,1.033,46.8,47.5,45.4,2.017,2.9,3.7,26,3.5,-0.00014,-0.00017,67.3,68.5,14,0,100,52.0,3.42,.,0.00
15min,AgWx,drainfrm,410,25AUG2017:05:30:00,50.0,12.65,48.8,49.6,48.5,49.6,47.5,88,91,84,1.040,45.2,45.8,43.4,3.069,3.3,324,14,4.2,-0.00012,-0.00015,67.3,68.5,14,0,100,50.9,3.42,.,0.00
15min,AgWx,drainfrm,410,25AUG2017:05:45:00,49.6,12.63,49.0,49.5,49.3,49.7,48.7,86,86,84,1.012,45.1,45.7,44.7,3.705,3.2,305,10,3.8,-0.00011,-0.00013,67.2,68.4,14,2,100,51.5,3.41,.,0.00
15min,AgWx,drainfrm,410,25AUG2017:06:00:00,49.4,12.64,52.3,52.8,51.1,52.8,49.6,81,86,72,0.984,45.4,47.0,44.2,2.674,3.4,14,63,5.8,-0.00027,-0.00018,67.0,68.2,14,12,100,53.5,3.41,.,0.00
15min,AgWx,drainfrm,410,25AUG2017:06:15:00,50.0,12.64,52.7,52.9,53.2,53.5,52.8,73,76,68,1.030,44.7,46.1,43.0,2.28,3.7,22,15,5.9,-0.00009,0.00007,67.0,68.4,14,35,100,55.7,3.41,.,0.00
15min,AgWx,drainfrm,410,25AUG2017:06:30:00,52.4,12.64,53.0,52.9,53.1,53.4,52.9,78,81,76,1.072,46.6,47.7,45.6,1.863,1.7,116,69,3.1,0.00004,0.00010,66.9,68.4,14,85,100,56.5,3.41,.,0.00
15min,AgWx,drainfrm,410,25AUG2017:06:45:00,55.6,12.65,53.7,53.8,53.4,53.8,52.9,79,82,76,1.080,47.1,47.9,45.9,2.543,1.9,251,23,2.8,0.00015,0.00023,66.7,68.2,14,90,100,57.8,3.41,.,0.00
15min,AgWx,drainfrm,410,25AUG2017:07:00:00,58.2,12.67,55.9,55.9,54.8,56.0,53.9,74,77,69,1.095,46.6,47.3,45.8,6.204,2.7,292,27,6.2,0.00046,0.00062,66.7,68.0,14,144,78,60.7,3.41,.,0.00
15min,AgWx,drainfrm,410,25AUG2017:07:15:00,61.5,12.66,57.5,57.4,57.1,57.6,55.8,66,72,59,1.056,45.8,47.2,43.5,5.722,3.5,349,25,7.1,0.00079,0.00106,66.6,68.0,14,150,28,62.8,3.40,.,0.00
15min,AgWx,drainfrm,410,25AUG2017:07:30:00,61.7,12.68,57.0,57.2,57.1,57.5,56.7,72,76,62,1.184,48.1,49.8,44.6,3.332,3.4,20,22,7.1,0.00076,0.00098,66.4,67.6,14,116,2,61.9,3.40,.,0.00
15min,AgWx,drainfrm,410,25AUG2017:07:45:00,63.5,12.71,59.1,58.8,57.9,58.8,57.0,71,76,65,1.106,48.4,49.8,47.2,2.938,2.3,344,24,3.7,0.00101,0.00120,66.5,68.0,14,185,9,64.9,3.40,.,0.00
15min,AgWx,drainfrm,410,25AUG2017:08:00:00,68.2,12.83,61.9,61.4,60.2,61.8,58.9,59,65,55,1.028,46.0,47.3,45.3,5.174,3.2,325,20,5.2,0.00175,0.00211,66.4,67.6,14,324,0,71.6,3.40,.,0.00
15min,AgWx,drainfrm,410,25AUG2017:08:15:00,72.3,12.89,62.6,62.8,61.7,63.0,60.8,57,60,54,1.083,46.2,48.5,44.2,3.354,2.9,24,30,5.6,0.00193,0.00231,66.4,68.0,14,334,0,74.7,3.40,.,0.00
15min,AgWx,drainfrm,410,25AUG2017:08:30:00,75.7,12.96,63.3,62.8,62.7,63.3,62.2,54,59,51,1.042,46.0,48.1,44.7,3.661,3.8,6.3,20,5.2,0.00228,0.00277,66.4,67.8,14,375,0,76.9,3.40,.,0.00